Location: Mohawk View
(42.7837°N, 73.7885°W)
Time: 06:20:53
(UTC+00:00)

Thor Agena Rocket - Pass Details

Date: 17 June 2021
Orbit: 759 x 808 km, 99.0° (Epoch: 27 July)

Event Time Altitude Azimuth Distance (km) Brightness Sun altitude
Rises 04:30:02 0° 18° (NNE) 3,321 7.9 -23.6°
Reaches altitude 10° 04:32:27 10° 23° (NNE) 2,381 6.9 -23.6°
Maximum altitude 04:37:35 53° 101° (E) 967 3.8 -23.7°
Enters shadow 04:38:11 50° 126° (SE) 999 3.8 -23.7°
